Find Starlink 36711

NORAD ID: 68040 Int'l Des: 2026-041 Owner: SPXS Country: US Constellation: starlink operational
LEOCIRCULAR

实时位置

正在加载3D地球...

关于 Starlink 36711

正在加载描述...

即将过境

Passes for default location (London). Set your location on the main map for personalized predictions.

高度历史

Loading altitude history...

两行轨道根数

1 68040U 26041A 26106.91668981 .00023491 00000-0 42939-3 0 9993
2 68040 53.1598 232.8914 0001375 48.6493 291.2550 15.49293353 6048
Epoch: Apr 16, 2026 • Age: 9 hours

当前状态

高度 437.9 km
速度 7.65 km/s
星下点 -53.03°S, 177.05°W
发射日期 Mar 2, 2026
运行时间 0.1 years
类型 internet

技术详情

分类 Payload
质量 575.00 kg
干质量 530.00 kg
总质量 575.00 kg
长度 0.30 m
直径 4.10 m
跨度 29.00 m
形状 Box + pan
制造商 SPXS
平台类型 Starlink V2MO
阶段状态 In Orbit
所有者/国家 SPXS/US

Most Searched